Погода в Ермакове

Россия / Ярославская область     58°19′19″N   41°00′33″E
темп.,
°C
ветер,
м/с
пор.,
м/с
влажн.,
%
обл.,
%
осадки,
мм/ч
давл.,
гПа
погр.,
м
16 мая, вс
вс1600:00+14ю311960 0.1 1009312
03:00+12ю310972 0.1 1009270
06:00+13ю311940 0.0 1009415
09:00+17ююз59742 0.0 1010913
12:00+19юз6107013 0.3 10111493
15:00+19юз596957 1.4 10111396
18:00+18юз497865 1.3 1011608
21:00+14ююз299393 2.4 1012178
17 мая, пн
пн1700:00+12юз279746 0.0 1013157
03:00+11юз24973 0.0 101570
06:00+13зюз139388 0.0 1016120
09:00+18юз1177100 0.0 1017433
12:00+22ююз125597 0.0 10171104
15:00+23юв125063 0.0 10171506
18:00+22в2465100 0.0 1016204
21:00+16в358751 0.0 101683
18 мая, вт
вт1800:00+15в39906 0.0 1016179
03:00+14в31191100 0.4 1016253
06:00+15в38921 0.0 1016240
09:00+22юв476211 0.0 1015570
12:00+27юв57435 0.0 10141085
15:00+28юв510435 0.0 10142831
18:00+25юв410564 0.0 1013779
21:00+19юв3137429 0.0 1014334
19 мая, ср
ср1900:00+16вюв310815 0.0 1013241
03:00+15вюв38895 0.0 1013166
06:00+18юв313765 0.0 1013365
09:00+23ююв510485 0.0 1013579
12:00+27юв510380 0.0 10121147
15:00+28юв510425 0.0 10112577
18:00+26вюв512440 0.0 10101095
21:00+20вюв515680 0.0 1010640
20 мая, чт
чт2000:00+18юв3989100 1.2 1010293
03:00+15вюв310955 1.3 1009293
06:00+16вюв4129050 0.1 1008451
09:00+21юв61065100 0.1 10071085
12:00+19ююв5107522 0.8 10071101
15:00+20ююв597032 2.6 10061388
18:00+17ююв59785 1.3 10061056
21:00+13ююв412915 2.0 1006637